Regional Weather Roundup
Issued by NWS

Home | Current Version | Previous Version | Graphics & Text | Print | Product List | Glossary On
Versions: 1 2 3 4 5 6 7 8 9 10 11 12 13 14 15 16 17 18 19 20 21 22 23 24 25 26 27 28 29 30 31 32 33 34 35 36 37 38 39 40 41 42 43 44 45 46 47 48 49 50
000
ASUS43 KLSX 231107
RWRMO

WEATHER SUMMARY FOR MISSOURI
NATIONAL WEATHER SERVICE SPRINGFIELD MO
600 AM CDT MON APR 23 2018

NOTE: "FAIR" INDICATES FEW OR NO CLOUDS BELOW 12,000 FEET WITH NO
       SIGNIFICANT WEATHER AND/OR OBSTRUCTIONS TO VISIBILITY.
       CURRENT SKY AND/OR WEATHER CONDITIONS ARE NOT AVAILABLE FOR
       CHILLICOTHE AND FARMINGTON.

MOZ001>031-035>038-043-044-053-054-231200-
...NORTHERN AND WESTERN MISSOURI...

CITY           SKY/WX    TMP DP  RH WIND       PRES   REMARKS
KANSAS CTY INT CLOUDY    52  31  44 NE9       30.11R
KANSAS C DTWN  CLOUDY    57  30  35 N6        30.10R
LEE`S SUMMIT   CLOUDY    55  31  39 NE8       30.09S
ST JOSEPH      CLOUDY    49  32  52 N6        30.13R
CHILLICOTHE      N/A     52  32  46 N6        30.13R
KIRKSVILLE     CLOUDY    50  33  52 NE9       30.12R

$$
MOZ066>068-077>081-088>096-101>105-231200-
...SOUTHWEST MISSOURI...

CITY           SKY/WX    TMP DP  RH WIND       PRES   REMARKS
SPRINGFIELD    CLOUDY    53  52  96 N13       29.97R
JOPLIN         CLOUDY    53  48  83 N12       30.01R
BRANSON        CLOUDY    50  50 100 NW9       29.95R FOG

$$
MOZ032>034-039>042-045>050-055>058-069>072-231200-
...CENTRAL MISSOURI...

CITY           SKY/WX    TMP DP  RH WIND       PRES   REMARKS
COLUMBIA       CLOUDY    55  36  48 N13       30.03R
JEFFERSON CITY CLOUDY    57  38  48 N8        30.01S
ROLLA          LGT RAIN  50  43  77 NE9       29.98S
SEDALIA        CLOUDY    53  40  61 N8        30.05S
WHITEMAN AFB   CLOUDY    53  35  50 N9        30.02R
WARRENSBURG    CLOUDY    52  32  46 N6        30.08R
OSAGE BEACH    CLOUDY    53  47  79 N6        30.01R

$$
MOZ051-052-059>065-231200-
...EAST CENTRAL MISSOURI...

CITY           SKY/WX    TMP DP  RH WIND       PRES   REMARKS
ST LOUIS INTL  LGT RAIN  52  41  66 NE9       30.00R
SPIRIT OF STL  LGT RAIN  53  41  63 NE9       29.98S
ST CHARLES     LGT RAIN  52  39  61 NE16G24   30.00S

$$
MOZ072>076-082>087-097>100-106>115-231200-
...SOUTH CENTRAL AND SOUTHEAST MISSOURI...

CITY           SKY/WX    TMP DP  RH WIND       PRES   REMARKS
CAPE GIRARDEAU LGT RAIN  53  51  93 NE21      29.78F FOG
FARMINGTON     RAIN      47  45  93 N12G20    29.91S
POPLAR BLUFF   LGT RAIN  53  52  96 N15       29.80R
WEST PLAINS    CLOUDY    53  50  89 N12       29.89S

$$



USA.gov is the U.S. government's official web portal to all federal, state and local government web resources and services.